Previsão horária em Cegielsko

Hoje, 27 Julho, Terça-feira

Tempo Temperatura Precipitação Vento Pressão Humidade
00:00 +20°C° 0.4 mm 3 m/s 751 mmHg 87%
01:00 +19°C° 0.4 mm 2 m/s 751 mmHg 90%
02:00 +19°C° 0.1 mm 2 m/s 751 mmHg 90%
03:00 +19°C° 0.1 mm 2 m/s 751 mmHg 90%
04:00 +19°C° 0.1 mm 2 m/s 751 mmHg 91%
05:00 +19°C° 0 mm 3 m/s 752 mmHg 87%
06:00 +20°C° 0 mm 3 m/s 752 mmHg 84%
07:00 +21°C° 0 mm 3 m/s 752 mmHg 80%
08:00 +24°C° 0 mm 3 m/s 752 mmHg 71%
09:00 +26°C° 0 mm 4 m/s 752 mmHg 63%
10:00 +28°C° 0 mm 4 m/s 752 mmHg 54%
11:00 +29°C° 0 mm 4 m/s 752 mmHg 49%
12:00 +30°C° 0 mm 4 m/s 752 mmHg 44%
13:00 +32°C° 0 mm 4 m/s 752 mmHg 40%
14:00 +32°C° 0 mm 5 m/s 752 mmHg 39%
15:00 +30°C° 0 mm 5 m/s 752 mmHg 38%
16:00 +30°C° 0 mm 5 m/s 752 mmHg 37%
17:00 +29°C° 0 mm 4 m/s 752 mmHg 44%
18:00 +27°C° 0 mm 3 m/s 752 mmHg 51%
19:00 +26°C° 0 mm 2 m/s 751 mmHg 58%
20:00 +24°C° 0.1 mm 2 m/s 752 mmHg 62%
21:00 +23°C° 0.1 mm 2 m/s 752 mmHg 66%
22:00 +21°C° 0.1 mm 2 m/s 752 mmHg 71%
23:00 +21°C° 0 mm 1 m/s 752 mmHg 72%

Amanhã, 28 Julho, Quarta-feira

Tempo Temperatura Precipitação Vento Pressão Humidade
00:00 +21°C° 0 mm 1 m/s 752 mmHg 74%
01:00 +18°C° 0 mm 0 m/s 752 mmHg 76%
02:00 +20°C° 0 mm 1 m/s 752 mmHg 76%
03:00 +20°C° 0 mm 1 m/s 752 mmHg 76%
04:00 +20°C° 0 mm 1 m/s 752 mmHg 76%
05:00 +21°C° 0 mm 1 m/s 752 mmHg 73%
06:00 +22°C° 0 mm 1 m/s 752 mmHg 70%
07:00 +23°C° 0 mm 1 m/s 752 mmHg 67%
08:00 +24°C° 0 mm 1 m/s 752 mmHg 65%
09:00 +24°C° 0 mm 2 m/s 752 mmHg 63%
10:00 +25°C° 0 mm 2 m/s 752 mmHg 61%
11:00 +26°C° 0 mm 2 m/s 752 mmHg 57%
12:00 +27°C° 0 mm 2 m/s 752 mmHg 53%
13:00 +28°C° 0 mm 3 m/s 752 mmHg 48%
14:00 +28°C° 0.1 mm 4 m/s 752 mmHg 52%
15:00 +27°C° 0.1 mm 5 m/s 752 mmHg 55%
16:00 +26°C° 0.1 mm 6 m/s 752 mmHg 59%
17:00 +23°C° 0.2 mm 5 m/s 752 mmHg 66%
18:00 +22°C° 0.2 mm 4 m/s 752 mmHg 73%
19:00 +20°C° 0.2 mm 3 m/s 752 mmHg 80%
20:00 +19°C° 0 mm 3 m/s 752 mmHg 84%
21:00 +18°C° 0 mm 3 m/s 752 mmHg 88%
22:00 +17°C° 0 mm 3 m/s 753 mmHg 92%
23:00 +17°C° 0 mm 3 m/s 752 mmHg 92%

Depois de amanhã, 29 Julho, Quinta-feira

Tempo Temperatura Precipitação Vento Pressão Humidade
00:00 +17°C° 0 mm 3 m/s 752 mmHg 92%
01:00 +16°C° 0 mm 3 m/s 752 mmHg 91%
02:00 +16°C° 0 mm 3 m/s 752 mmHg 92%
03:00 +16°C° 0 mm 3 m/s 752 mmHg 93%
04:00 +16°C° 0 mm 3 m/s 752 mmHg 93%
05:00 +17°C° 0 mm 4 m/s 752 mmHg 86%
06:00 +18°C° 0 mm 4 m/s 752 mmHg 80%
07:00 +20°C° 0 mm 5 m/s 752 mmHg 73%
08:00 +21°C° 0 mm 5 m/s 752 mmHg 64%
09:00 +23°C° 0 mm 6 m/s 752 mmHg 55%
10:00 +26°C° 0 mm 6 m/s 752 mmHg 47%
11:00 +26°C° 0 mm 6 m/s 752 mmHg 43%
12:00 +27°C° 0 mm 6 m/s 751 mmHg 39%
13:00 +28°C° 0 mm 7 m/s 751 mmHg 35%
14:00 +28°C° 0 mm 6 m/s 751 mmHg 38%
15:00 +27°C° 0 mm 6 m/s 751 mmHg 40%
16:00 +27°C° 0 mm 6 m/s 751 mmHg 43%
17:00 +26°C° 0 mm 4 m/s 751 mmHg 47%
18:00 +25°C° 0 mm 3 m/s 750 mmHg 51%
19:00 +24°C° 0 mm 2 m/s 750 mmHg 55%
20:00 +23°C° 0 mm 2 m/s 750 mmHg 59%
21:00 +20°C° 0 mm 2 m/s 750 mmHg 62%
22:00 +19°C° 0 mm 2 m/s 751 mmHg 65%
23:00 +18°C° 0 mm 2 m/s 751 mmHg 65%

30 Julho, Sexta-feira

Tempo Temperatura Precipitação Vento Pressão Humidade
00:00 +17°C° 0 mm 2 m/s 751 mmHg 65%
01:00 +18°C° 0 mm 1 m/s 751 mmHg 65%
02:00 +16°C° 0 mm 1 m/s 751 mmHg 65%
03:00 +16°C° 0 mm 1 m/s 750 mmHg 65%
04:00 +15°C° 0 mm 1 m/s 750 mmHg 65%
05:00 +18°C° 0 mm 1 m/s 750 mmHg 61%
06:00 +18°C° 0 mm 2 m/s 750 mmHg 58%
07:00 +19°C° 0 mm 2 m/s 750 mmHg 54%
08:00 +21°C° 0 mm 2 m/s 750 mmHg 50%
09:00 +24°C° 0 mm 3 m/s 750 mmHg 46%
10:00 +25°C° 0 mm 4 m/s 750 mmHg 41%
11:00 +26°C° 0 mm 4 m/s 750 mmHg 39%
12:00 +27°C° 0 mm 5 m/s 749 mmHg 37%
13:00 +28°C° 0 mm 5 m/s 749 mmHg 36%
14:00 +28°C° 0 mm 5 m/s 749 mmHg 36%
15:00 +28°C° 0 mm 5 m/s 749 mmHg 36%
16:00 +28°C° 0 mm 5 m/s 749 mmHg 36%
17:00 +26°C° 0 mm 4 m/s 748 mmHg 42%
18:00 +25°C° 0 mm 3 m/s 748 mmHg 47%
19:00 +24°C° 0 mm 2 m/s 748 mmHg 53%
20:00 +21°C° 0 mm 2 m/s 748 mmHg 55%
21:00 +21°C° 0 mm 1 m/s 748 mmHg 56%
22:00 +20°C° 0 mm 1 m/s 748 mmHg 58%
23:00 +20°C° 0 mm 1 m/s 748 mmHg 59%

31 Julho, Sábado

Tempo Temperatura Precipitação Vento Pressão Humidade
00:00 +20°C° 0 mm 1 m/s 748 mmHg 61%
01:00 +19°C° 0 mm 1 m/s 748 mmHg 62%
02:00 +18°C° 0 mm 2 m/s 748 mmHg 63%
03:00 +18°C° 0 mm 2 m/s 747 mmHg 64%
04:00 +18°C° 0 mm 2 m/s 747 mmHg 66%
05:00 +19°C° 0 mm 3 m/s 747 mmHg 65%
06:00 +20°C° 0 mm 4 m/s 747 mmHg 64%
07:00 +21°C° 0 mm 5 m/s 747 mmHg 63%
08:00 +22°C° 0 mm 5 m/s 748 mmHg 59%
09:00 +23°C° 0 mm 6 m/s 748 mmHg 55%
10:00 +24°C° 0 mm 7 m/s 748 mmHg 51%
11:00 +24°C° 0 mm 7 m/s 748 mmHg 48%
12:00 +24°C° 0 mm 7 m/s 748 mmHg 44%
13:00 +26°C° 0 mm 7 m/s 748 mmHg 41%
14:00 +24°C° 0 mm 7 m/s 748 mmHg 41%
15:00 +24°C° 0 mm 7 m/s 748 mmHg 41%
16:00 +24°C° 0 mm 7 m/s 749 mmHg 42%
17:00 +23°C° 0 mm 6 m/s 749 mmHg 46%
18:00 +22°C° 0 mm 5 m/s 749 mmHg 49%
19:00 +21°C° 0 mm 4 m/s 749 mmHg 53%
20:00 +20°C° 0 mm 4 m/s 749 mmHg 59%
21:00 +19°C° 0 mm 3 m/s 749 mmHg 64%
22:00 +17°C° 0 mm 3 m/s 749 mmHg 69%
23:00 +17°C° 0 mm 3 m/s 749 mmHg 73%

1 Agosto, Domingo

Tempo Temperatura Precipitação Vento Pressão Humidade
00:00 +16°C° 0 mm 3 m/s 749 mmHg 76%
01:00 +16°C° 0 mm 3 m/s 749 mmHg 80%
02:00 +14°C° 0 mm 3 m/s 750 mmHg 83%
03:00 +14°C° 0 mm 3 m/s 750 mmHg 87%
04:00 +13°C° 0 mm 3 m/s 750 mmHg 90%
05:00 +16°C° 0 mm 3 m/s 750 mmHg 84%
06:00 +17°C° 0 mm 4 m/s 750 mmHg 78%
07:00 +18°C° 0 mm 4 m/s 750 mmHg 72%
08:00 +20°C° 0 mm 4 m/s 750 mmHg 65%
09:00 +21°C° 0 mm 5 m/s 750 mmHg 57%
10:00 +23°C° 0 mm 5 m/s 750 mmHg 50%
11:00 +23°C° 0 mm 5 m/s 749 mmHg 49%
12:00 +23°C° 0 mm 5 m/s 749 mmHg 49%
13:00 +23°C° 0 mm 5 m/s 749 mmHg 48%
14:00 +23°C° 0 mm 5 m/s 749 mmHg 48%
15:00 +23°C° 0 mm 5 m/s 749 mmHg 49%
16:00 +23°C° 0 mm 5 m/s 749 mmHg 49%
17:00 +23°C° 0 mm 4 m/s 748 mmHg 53%
18:00 +22°C° 0 mm 4 m/s 748 mmHg 56%
19:00 +21°C° 0 mm 3 m/s 748 mmHg 60%
20:00 +20°C° 0 mm 3 m/s 749 mmHg 67%
21:00 +18°C° 0 mm 3 m/s 749 mmHg 74%
22:00 +17°C° 0 mm 3 m/s 749 mmHg 81%
23:00 +16°C° 0 mm 3 m/s 749 mmHg 84%
Mostrar mais

Necessitamos do seu Consentimento

A Meteoprog e os seus Fornecedores de Serviços podem armazenar e aceder a dados pessoais como cookies, identificadores do dispositivo ou outras tecnologias semelhantes existentes no seu dispositivo e processar estes dados para personalizar conteúdos e anúncios, assim como funcionalidades nas redes sociais e análise de tráfego.

  • Armazenar e/ou aceder a informações no seu dispositivo

    Os cookies, identificadores do dispositivo ou outras informações podem ser armazenados ou acedidos no seu dispositivo, para os fins acima indicados.

  • Anúncios e conteúdos personalizados, medição de anúncios e conteúdos, dados sobre o público-alvo e desenvolvimento de produtos

    Os anúncios e os conteúdos podem ser personalizados com base num perfil. Podem ser adicionados dados adicionais para uma maior personalização dos anúncios e dos conteúdos. A eficácia dos anúncios e dos conteúdos pode ser medida. Podem ser obtidas informações sobre o público que visualizou os anúncios e os conteúdos. Estes dados podem ser usados para desenvolver ou melhorar sistemas, softwares ou a experiência do utilizador.

Ao clicar em "Eu concordo”, permitirá o uso de cookies, identificadores do dispositivo e web beacons mencionados ou outras tecnologias semelhantes. As configurações do navegador do seu dispositivo podem ser alteradas.

Para certos fins, podem ser invocados interesses legítimos ao invés de consentimento. Pode ler mais informação sobre este assunto na nossa Política de Privacidade e Cookies.